Springfield, MO

12:52 PM CST on February 12, 2016 (GMT -0600)
Springfield-Branson Regional

Weather History for KSGF - May, 2013

Change the Weather History Date:

Thursday, May 16, 2013

  Actual Average Record
Temperature  
Mean Temperature 64 °F 65 °F  
Max Temperature 67 °F 75 °F 93 °F (1972)
Min Temperature 61 °F 55 °F 36 °F (1997)
Degree Days  
Heating Degree Days 1 3  
Month to date heating degree days 136 67  
Since 1 July heating degree days 4488 4541  
Cooling Degree Days 0 3  
Month to date cooling degree days 21 30  
Year to date cooling degree days 38 55  
Growing Degree Days 14 (Base 50)    
Moisture  
Dew Point 61 °F    
Average Humidity 91    
Maximum Humidity 100    
Minimum Humidity 81    
Precipitation  
Precipitation 0.03 in 0.16 in 2.55 in (1896)
Month to date precipitation 2.17 2.81  
Year to date precipitation 17.92 15.74  
Snow  
Snow 0.00 in - - ()
Month to date snowfall 1.4  
Since 1 July snowfall 12.7  
Snow Depth 0.00 in    
Sea Level Pressure  
Sea Level Pressure 29.88 in    
Wind  
Wind Speed 10 mph (SE)    
Max Wind Speed 16 mph    
Max Gust Speed 20 mph    
Visibility 10 miles    
Events Rain    
T = Trace of Precipitation, MM = Missing Value Source: NWS Daily Summary

Daily Weather History Graph

Daily Weather History Graph

Search for Another Location

Airport or City:

Trip Planner

Search our weather history database for the weather conditions in past years. The results will help you decide how hot, cold, wet, or windy it might be!

Date:

Astronomy

May. 16, 2013 Rise Set
Actual Time 6:03 AM CDT 8:16 PM CDT
Civil Twilight 5:34 AM CDT 8:45 PM CDT
Nautical Twilight 4:58 AM CDT 9:21 PM CDT
Astronomical Twilight 4:20 AM CDT 10:00 PM CDT
Moon 11:35 AM CDT (5/16) 12:39 AM CDT (5/16)
Length of Visible Light 15h 11m
Length of Day
14h 12m
Waxing Crescent, 36% of the Moon is Illuminated
May 16
Waxing Crescent
May 17
First Quarter
May 24
Full
May 31
Last Quarter
Jun 8
New

Hourly Weather History & Observations

Time (CDT) Temp. Dew Point Humidity Pressure Visibility Wind Dir Wind Speed Gust Speed Precip Events Conditions
12:52 AM 63.0 °F 61.0 °F 93% 29.85 in 10.0 mi SSE 10.4 mph - N/A   Clear
1:32 AM 63.0 °F 62.1 °F 97% 29.89 in 9.0 mi SSE 10.4 mph - N/A   Partly Cloudy
1:52 AM 63.0 °F 62.1 °F 97% 29.86 in 9.0 mi SSE 11.5 mph - N/A   Partly Cloudy
2:52 AM 63.0 °F 62.1 °F 97% 29.86 in 7.0 mi SSE 10.4 mph - N/A   Mostly Cloudy
3:52 AM 63.0 °F 61.0 °F 93% 29.86 in 9.0 mi SSE 9.2 mph - N/A   Partly Cloudy
4:52 AM 63.0 °F 61.0 °F 93% 29.88 in 10.0 mi SSE 8.1 mph - N/A   Clear
5:52 AM 63.0 °F 61.0 °F 93% 29.88 in 10.0 mi East 10.4 mph 18.4 mph N/A   Overcast
6:52 AM 63.0 °F 61.0 °F 93% 29.88 in 10.0 mi SSE 9.2 mph - N/A   Overcast
7:52 AM 64.0 °F 61.0 °F 90% 29.89 in 10.0 mi SE 9.2 mph - N/A   Overcast
8:52 AM 64.9 °F 61.0 °F 87% 29.91 in 10.0 mi SSE 10.4 mph - N/A   Mostly Cloudy
9:47 AM 64.4 °F 60.8 °F 88% 29.92 in 10.0 mi SE 10.4 mph - N/A   Mostly Cloudy
9:52 AM 64.9 °F 60.1 °F 84% 29.90 in 10.0 mi SSE 10.4 mph - N/A   Overcast
10:52 AM 66.0 °F 60.1 °F 81% 29.90 in 10.0 mi SE 11.5 mph - N/A   Overcast
11:52 AM 64.9 °F 60.1 °F 84% 29.89 in 10.0 mi SSE 8.1 mph - N/A   Overcast
12:52 PM 64.9 °F 60.1 °F 84% 29.88 in 10.0 mi SSE 11.5 mph - N/A   Overcast
1:36 PM 66.0 °F 60.1 °F 81% 29.91 in 10.0 mi SSE 11.5 mph - N/A   Overcast
1:52 PM 64.9 °F 61.0 °F 87% 29.89 in 10.0 mi South 8.1 mph - 0.00 in Rain Light Rain
2:52 PM 64.0 °F 61.0 °F 90% 29.89 in 8.0 mi SSE 10.4 mph - 0.02 in Rain Light Rain
3:06 PM 64.9 °F 62.1 °F 90% 29.91 in 10.0 mi SE 11.5 mph - 0.01 in Rain Light Rain
3:41 PM 64.9 °F 62.1 °F 90% 29.90 in 10.0 mi SE 12.7 mph - 0.01 in Rain Light Rain
3:45 PM 64.9 °F 62.1 °F 90% 29.90 in 10.0 mi SE 10.4 mph - 0.01 in Rain Light Rain
3:52 PM 64.9 °F 62.1 °F 90% 29.88 in 10.0 mi SE 10.4 mph - 0.01 in Rain Light Rain
4:03 PM 66.0 °F 62.1 °F 87% 29.89 in 10.0 mi SE 11.5 mph - 0.00 in Rain Light Rain
4:52 PM 64.9 °F 62.1 °F 90% 29.86 in 10.0 mi SE 9.2 mph - 0.00 in Rain Light Rain
5:05 PM 64.9 °F 61.0 °F 87% 29.88 in 10.0 mi SSE 11.5 mph - 0.00 in Rain Light Rain
5:52 PM 64.9 °F 60.1 °F 84% 29.86 in 10.0 mi SSE 12.7 mph - 0.00 in   Overcast
6:24 PM 64.0 °F 60.1 °F 87% 29.87 in 10.0 mi SE 11.5 mph - N/A   Overcast
6:52 PM 63.0 °F 60.1 °F 90% 29.85 in 10.0 mi ESE 11.5 mph - N/A   Overcast
7:11 PM 62.1 °F 59.0 °F 90% 29.86 in 10.0 mi SE 12.7 mph - N/A   Overcast
7:52 PM 62.1 °F 59.0 °F 90% 29.85 in 10.0 mi SE 13.8 mph - N/A   Overcast
8:52 PM 62.1 °F 59.0 °F 90% 29.85 in 10.0 mi SSE 10.4 mph - N/A   Overcast
9:52 PM 62.1 °F 60.1 °F 93% 29.88 in 10.0 mi SSE 6.9 mph - N/A   Overcast
10:52 PM 62.1 °F 60.1 °F 93% 29.89 in 10.0 mi SSE 3.5 mph - N/A   Overcast
11:37 PM 62.1 °F 60.1 °F 93% 29.90 in 10.0 mi SE 6.9 mph - N/A   Overcast
11:52 PM 62.1 °F 60.1 °F 93% 29.88 in 10.0 mi SSE 6.9 mph - N/A   Overcast